CW4086 Weather Reports


time (UTC)temp
C
wind
direction
speed
KPH
gust
KPH
rain 1hr
cm
rain 24hr
cm
rain mn
cm
humidity
%
barometer
mb
20260903141604 13 56 0.0 1.6 0.00 0.00 0.00 47 1014.2
20260903141104 13 56 0.0 1.6 0.00 0.00 0.00 46 1014.2
20260903135605 13 56 0.0 3.2 0.00 0.00 0.00 47 1014.2
20260903135105 13 57 0.0 3.2 0.00 0.00 0.00 48 1014.0
20260903134605 13 155 1.6 3.2 0.00 0.00 0.00 49 1013.9
20260903134104 13 155 1.6 3.2 0.00 0.00 0.00 51 1013.7
20260903133604 13 155 0.0 3.2 0.00 0.00 0.00 51 1013.7
20260903133104 13 155 1.6 3.2 0.00 0.00 0.00 51 1013.6
20260903132603 13 155 1.6 3.2 0.00 0.00 0.00 51 1013.6
20260903132104 13 155 1.6 3.2 0.00 0.00 0.00 51 1013.6
20260903131604 13 155 1.6 3.2 0.00 0.00 0.00 50 1013.7
20260903131104 13 155 1.6 3.2 0.00 0.00 0.00 51 1013.6
20260903130105 13 155 1.6 3.2 0.00 0.00 0.00 49 1013.6
20260903125609 13 155 1.6 3.2 0.00 0.00 0.00 51 1013.7
20260903125104 13 155 1.6 3.2 0.00 0.00 0.00 51 1013.7
20260903124604 13 155 1.6 3.2 0.00 0.00 0.00 50 1013.7
20260903124103 13 155 1.6 3.2 0.00 0.00 0.00 51 1013.7
20260903123603 13 155 1.6 3.2 0.00 0.00 0.00 51 1013.7
20260903123104 13 155 1.6 3.2 0.00 0.00 0.00 51 1013.8
20260903122104 13 155 1.6 3.2 0.00 0.00 0.00 53 1013.8
20260903121604 13 155 1.6 3.2 0.00 0.00 0.00 53 1013.7
20260903121104 13 155 1.6 3.2 0.00 0.00 0.00 53 1013.8
20260903120604 13 155 1.6 3.2 0.00 0.00 0.00 53 1013.8
20260903115610 13 155 1.6 1.6 0.00 0.00 0.00 54 1014.0
20260903115104 13 155 0.0 1.6 0.00 0.00 0.00 54 1014.1
20260903114605 13 155 0.0 1.6 0.00 0.00 0.00 54 1014.1
20260903114104 13 155 0.0 3.2 0.00 0.00 0.00 51 1014.1
20260903113104 13 155 1.6 3.2 0.00 0.00 0.00 47 1014.2
20260903112603 13 155 1.6 3.2 0.00 0.00 0.00 47 1014.2
20260903111103 13 155 0.0 1.6 0.00 0.00 0.00 47 1014.3
20260903110606 13 155 0.0 4.8 0.00 0.00 0.00 48 1014.3
20260903105609 14 153 3.2 4.8 0.00 0.00 0.00 49 1014.3
20260903105104 14 150 0.0 3.2 0.00 0.00 0.00 47 1014.4
20260903104604 14 150 0.0 3.2 0.00 0.00 0.00 47 1014.3
20260903104104 14 150 1.6 3.2 0.00 0.00 0.00 49 1014.3
20260903103604 15 150 0.0 0.0 0.00 0.00 0.00 56 1014.4
20260903103104 15 150 0.0 1.6 0.00 0.00 0.00 55 1014.5
20260903102603 15 150 0.0 3.2 0.00 0.00 0.00 51 1014.5
20260903102103 15 150 0.0 3.2 0.00 0.00 0.00 47 1014.5
20260903101604 15 150 1.6 3.2 0.00 0.00 0.00 46 1014.5
20260903101104 15 150 1.6 1.6 0.00 0.00 0.00 44 1014.6
20260903100604 15 150 0.0 1.6 0.00 0.00 0.00 44 1014.5
20260903100105 15 150 0.0 1.6 0.00 0.00 0.00 44 1014.6
20260903095604 15 150 0.0 1.6 0.00 0.00 0.00 44 1014.6
20260903094604 15 150 1.6 1.6 0.00 0.00 0.00 45 1014.5
20260903094103 15 150 1.6 1.6 0.00 0.00 0.00 45 1014.6
20260903093604 15 150 1.6 1.6 0.00 0.00 0.00 45 1014.7
20260903093104 15 150 0.0 1.6 0.00 0.00 0.00 46 1014.7
20260903091604 16 150 0.0 0.0 0.00 0.00 0.00 47 1014.7
20260903091105 16 150 0.0 0.0 0.00 0.00 0.00 47 1014.7
20260903090606 16 150 0.0 1.6 0.00 0.00 0.00 47 1014.7
20260903090105 16 150 0.0 3.2 0.00 0.00 0.00 47 1014.6
20260903085608 16 150 0.0 3.2 0.00 0.00 0.00 47 1014.6
20260903085104 16 150 1.6 3.2 0.00 0.00 0.00 47 1014.6
20260903084108 16 150 0.0 1.6 0.00 0.00 0.00 48 1014.8
20260903083104 16 150 0.0 3.2 0.00 0.00 0.00 47 1014.9
20260903082604 16 150 1.6 3.2 0.00 0.00 0.00 47 1014.9
20260903082104 16 150 1.6 3.2 0.00 0.00 0.00 47 1015.0
20260903081604 16 150 0.0 3.2 0.00 0.00 0.00 46 1015.1
20260903081122 16 150 1.6 3.2 0.00 0.00 0.00 45 1015.1
20260903080131 17 150 1.6 3.2 0.00 0.00 0.00 44 1015.1
20260903075604 17 150 1.6 3.2 0.00 0.00 0.00 44 1015.1
20260903075104 17 150 0.0 3.2 0.00 0.00 0.00 43 1015.2
20260903074604 17 150 1.6 4.8 0.00 0.00 0.00 43 1015.2
20260903073604 17 150 3.2 3.2 0.00 0.00 0.00 45 1015.1
20260903073104 17 150 1.6 3.2 0.00 0.00 0.00 48 1015.1
20260903072604 17 150 0.0 1.6 0.00 0.00 0.00 49 1015.1
20260903072104 17 150 1.6 3.2 0.00 0.00 0.00 49 1015.1
20260903071604 17 150 0.0 3.2 0.00 0.00 0.00 49 1015.1
20260903071104 17 150 0.0 1.6 0.00 0.00 0.00 48 1015.1
20260903070605 17 150 0.0 3.2 0.00 0.00 0.00 48 1015.1
20260903070104 17 150 1.6 3.2 0.00 0.00 0.00 49 1015.1
20260903065607 17 150 1.6 3.2 0.00 0.00 0.00 49 1015.1
20260903065104 17 150 1.6 1.6 0.00 0.00 0.00 48 1015.2
20260903064604 17 150 0.0 3.2 0.00 0.00 0.00 47 1015.1
20260903064104 17 150 1.6 3.2 0.00 0.00 0.00 48 1015.2
20260903063604 17 150 0.0 3.2 0.00 0.00 0.00 50 1015.2
20260903063104 17 150 1.6 3.2 0.00 0.00 0.00 50 1015.2
20260903062604 17 150 1.6 3.2 0.00 0.00 0.00 50 1015.3
20260903062104 18 150 1.6 3.2 0.00 0.00 0.00 50 1015.3
20260903061604 18 150 0.0 3.2 0.00 0.00 0.00 49 1015.3
20260903061104 18 150 1.6 3.2 0.00 0.00 0.00 50 1015.3
20260903060605 18 150 0.0 1.6 0.00 0.00 0.00 50 1015.3
20260903054604 18 150 0.0 3.2 0.00 0.00 0.00 50 1015.5
20260903054104 18 150 1.6 3.2 0.00 0.00 0.00 50 1015.5
20260903053603 18 150 0.0 1.6 0.00 0.00 0.00 50 1015.6
20260903053103 18 150 0.0 0.0 0.00 0.00 0.00 50 1015.5
20260903052607 18 150 0.0 3.2 0.00 0.00 0.00 50 1015.5
20260903052104 18 150 0.0 4.8 0.00 0.00 0.00 50 1015.6
20260903051604 18 150 1.6 4.8 0.00 0.00 0.00 50 1015.5
20260903051105 18 150 1.6 4.8 0.00 0.00 0.00 50 1015.5
20260903050606 18 185 0.0 1.6 0.00 0.00 0.00 51 1015.5
20260903045608 19 185 0.0 1.6 0.00 0.00 0.00 50 1015.5
20260903045104 19 185 0.0 0.0 0.00 0.00 0.00 49 1015.4
20260903044604 19 185 0.0 1.6 0.00 0.00 0.00 49 1015.4
20260903042604 20 185 0.0 3.2 0.00 0.00 0.00 48 1015.2
20260903042104 20 185 0.0 1.6 0.00 0.00 0.00 48 1015.1
20260903041604 20 185 0.0 1.6 0.00 0.00 0.00 47 1015.1
20260903040105 20 185 1.6 3.2 0.00 0.00 0.00 46 1015.1
20260903034103 20 168 1.6 3.2 0.00 0.00 0.00 47 1014.9
20260903033104 20 192 0.0 3.2 0.00 0.00 0.00 46 1014.8
20260903032604 21 192 0.0 3.2 0.00 0.00 0.00 45 1014.7
20260903032104 21 196 0.0 3.2 0.00 0.00 0.00 44 1014.7
20260903024604 22 216 0.0 3.2 0.00 0.00 0.00 36 1014.4
20260903024104 22 266 1.6 3.2 0.00 0.00 0.00 35 1014.3
20260903023603 22 270 1.6 4.8 0.00 0.00 0.00 35 1014.2
20260903023104 22 298 1.6 4.8 0.00 0.00 0.00 34 1014.1
20260903022103 23 276 1.6 4.8 0.00 0.00 0.00 33 1013.9
20260903021104 23 285 1.6 4.8 0.00 0.00 0.00 31 1013.9
20260903020604 24 285 1.6 4.8 0.00 0.00 0.00 29 1013.9
20260903020105 25 279 3.2 4.8 0.00 0.00 0.00 28 1013.9
20260903015604 26 294 3.2 4.8 0.00 0.00 0.00 26 1013.9
20260903015104 26 288 3.2 8.0 0.00 0.00 0.00 26 1013.9
20260903014604 26 256 3.2 8.0 0.00 0.00 0.00 25 1013.8
20260903012104 27 260 6.4 11.3 0.00 0.00 0.00 18 1013.5
20260903011604 28 240 6.4 11.3 0.00 0.00 0.00 18 1013.5
20260903011103 28 265 6.4 12.9 0.00 0.00 0.00 18 1013.4
20260903005608 29 233 6.4 14.5 0.00 0.00 0.00 20 1013.4
20260903004104 30 238 4.8 14.5 0.00 0.00 0.00 19 1013.4
20260903003603 29 246 6.4 14.5 0.00 0.00 0.00 18 1013.4
20260903003104 29 237 6.4 12.9 0.00 0.00 0.00 17 1013.4
20260903002106 30 266 8.0 14.5 0.00 0.00 0.00 17 1013.4
20260903001604 30 258 4.8 12.9 0.00 0.00 0.00 17 1013.4
20260903000604 30 236 8.0 14.5 0.00 0.00 0.00 18 1013.4
20260903000107 30 263 6.4 19.3 0.00 0.00 0.00 17 1013.4
20260902235603 30 254 6.4 19.3 0.00 0.00 0.00 17 1013.4
20260902235104 30 229 6.4 14.5 0.00 0.00 0.00 17 1013.4
20260902234604 30 258 6.4 16.1 0.00 0.00 0.00 17 1013.4
20260902234104 30 189 6.4 16.1 0.00 0.00 0.00 15 1013.5
20260902233604 30 196 4.8 14.5 0.00 0.00 0.00 16 1013.5
20260902232604 30 279 8.0 14.5 0.00 0.00 0.00 18 1013.6
20260902231104 30 269 9.7 16.1 0.00 0.00 0.00 18 1013.9
20260902230606 30 267 9.7 16.1 0.00 0.00 0.00 18 1013.9
20260902230104 30 259 8.0 14.5 0.00 0.00 0.00 17 1013.9
20260902224104 30 262 9.7 14.5 0.00 0.00 0.00 18 1014.0
20260902222654 30 240 9.7 16.1 0.00 0.00 0.00 18 1014.1
20260902222104 29 246 8.0 14.5 0.00 0.00 0.00 18 1014.2
20260902221604 29 234 8.0 14.5 0.00 0.00 0.00 19 1014.3
20260902220604 29 266 6.4 14.5 0.00 0.00 0.00 19 1014.4
20260902214603 29 294 8.0 12.9 0.00 0.00 0.00 18 1014.4
20260902214103 29 280 8.0 12.9 0.00 0.00 0.00 19 1014.5
20260902213604 29 290 9.7 12.9 0.00 0.00 0.00 18 1014.5
20260902212604 28 265 9.7 14.5 0.00 0.00 0.00 19 1014.6
20260902212104 29 264 6.4 16.1 0.00 0.00 0.00 19 1014.7
20260902211103 29 259 4.8 16.1 0.00 0.00 0.00 19 1014.8
20260902210606 28 254 6.4 14.5 0.00 0.00 0.00 19 1014.9
20260902210105 28 256 8.0 19.3 0.00 0.00 0.00 19 1014.8
20260902205613 28 286 8.0 19.3 0.00 0.00 0.00 20 1014.9
20260902205104 29 273 6.4 16.1 0.00 0.00 0.00 18 1014.9
20260902204603 29 276 8.0 19.3 0.00 0.00 0.00 18 1014.9
20260902204104 28 282 4.8 19.3 0.00 0.00 0.00 17 1015.0
20260902203604 28 249 9.7 19.3 0.00 0.00 0.00 16 1015.0
20260902203104 29 267 8.0 12.9 0.00 0.00 0.00 17 1014.9
20260902201620 28 267 8.0 14.5 0.00 0.00 0.00 18 1015.0
20260902201104 28 266 8.0 19.3 0.00 0.00 0.00 20 1014.9
20260902200604 28 260 6.4 19.3 0.00 0.00 0.00 20 1014.9
20260902195607 28 256 8.0 11.3 0.00 0.00 0.00 21 1015.0
20260902194604 28 276 4.8 12.9 0.00 0.00 0.00 19 1015.2
20260902194104 28 293 4.8 12.9 0.00 0.00 0.00 19 1015.2
20260902193104 28 273 4.8 12.9 0.00 0.00 0.00 20 1015.2
20260902192604 28 279 6.4 12.9 0.00 0.00 0.00 19 1015.3
20260902192104 28 300 6.4 11.3 0.00 0.00 0.00 18 1015.3
20260902191104 28 303 6.4 11.3 0.00 0.00 0.00 19 1015.4
20260902190603 28 278 4.8 8.0 0.00 0.00 0.00 19 1015.4
20260902190104 28 304 3.2 8.0 0.00 0.00 0.00 21 1015.4
20260902185104 27 312 1.6 11.3 0.00 0.00 0.00 22 1015.5
20260902184604 27 315 4.8 11.3 0.00 0.00 0.00 23 1015.5
20260902184104 27 336 6.4 11.3 0.00 0.00 0.00 22 1015.5
20260902183603 27 280 4.8 9.7 0.00 0.00 0.00 24 1015.5
20260902183103 26 278 1.6 8.0 0.00 0.00 0.00 23 1015.5
20260902182604 26 277 3.2 9.7 0.00 0.00 0.00 23 1015.6
20260902182105 26 314 4.8 9.7 0.00 0.00 0.00 23 1015.7
20260902181104 26 262 3.2 8.0 0.00 0.00 0.00 23 1016.0
20260902180604 25 293 4.8 8.0 0.00 0.00 0.00 23 1016.0
20260902180105 25 268 1.6 8.0 0.00 0.00 0.00 22 1016.0
20260902175104 25 276 1.6 8.0 0.00 0.00 0.00 23 1016.0
20260902174604 25 289 3.2 8.0 0.00 0.00 0.00 23 1016.1
20260902174104 24 280 1.6 4.8 0.00 0.00 0.00 23 1016.1
20260902173603 24 253 1.6 4.8 0.00 0.00 0.00 22 1016.1
20260902172604 23 294 1.6 4.8 0.00 0.00 0.00 22 1016.1
20260902171604 23 286 1.6 4.8 0.00 0.00 0.00 21 1016.1
20260902170606 23 328 3.2 4.8 0.00 0.00 0.00 20 1016.1
20260902170104 23 278 3.2 4.8 0.00 0.00 0.00 21 1016.0
20260902165608 22 297 1.6 4.8 0.00 0.00 0.00 23 1016.0
20260902165104 22 293 1.6 4.8 0.00 0.00 0.00 24 1016.0
20260902163603 22 285 3.2 8.0 0.00 0.00 0.00 24 1015.8
20260902162604 21 263 3.2 4.8 0.00 0.00 0.00 26 1015.8
20260902162104 21 280 1.6 4.8 0.00 0.00 0.00 26 1015.8
20260902161604 21 232 3.2 4.8 0.00 0.00 0.00 28 1015.6
20260902161104 21 196 1.6 4.8 0.00 0.00 0.00 26 1015.6
20260902160603 21 163 1.6 3.2 0.00 0.00 0.00 25 1015.7
20260902160104 21 163 0.0 3.2 0.00 0.00 0.00 25 1015.8
20260902155615 21 163 0.0 3.2 0.00 0.00 0.00 28 1015.9
20260902155104 21 163 0.0 3.2 0.00 0.00 0.00 31 1015.9
20260902154604 21 163 0.0 1.6 0.00 0.00 0.00 31 1015.9
20260902154104 20 163 0.0 1.6 0.00 0.00 0.00 30 1015.8
20260902153604 20 163 0.0 1.6 0.00 0.00 0.00 30 1015.9
20260902153104 20 163 0.0 1.6 0.00 0.00 0.00 31 1016.0
20260902152104 19 163 0.0 1.6 0.00 0.00 0.00 30 1016.1
20260902151604 18 163 0.0 0.0 0.00 0.00 0.00 32 1016.1
20260902151104 18 163 0.0 3.2 0.00 0.00 0.00 35 1016.1
20260902150604 18 163 0.0 3.2 0.00 0.00 0.00 36 1016.1
20260902145608 17 163 0.0 0.0 0.00 0.00 0.00 36 1015.9
20260902144104 15 163 0.0 0.0 0.00 0.00 0.00 34 1015.7
20260902143605 15 163 0.0 0.0 0.00 0.00 0.00 31 1015.7
20260902142104 15 163 0.0 3.2 0.00 0.00 0.00 32 1015.6